"Pseudo-MPEC" for C0UTWY5

Created 2024 Nov 2 9:31:04 UT using Find_Orb

Click here for an explanation of pseudo-MPECs

 
 Astrometry: 
     C0UTWY5* C2024 10 28.36016703 31 54.271+11 39 34.16   ~AS9V 23.25GVNEOCPV00
     C0UTWY5  C2024 10 28.36577803 31 54.588+11 39 23.83   ~AS9V 23.65GVNEOCPV00
     C0UTWY5  C2024 10 28.37138003 31 54.980+11 39 14.44   ~AS9V 23.26GVNEOCPV00
     C0UTWY5  C2024 10 28.37699003 31 55.402+11 39 04.64   ~AS9V 22.69GVNEOCPV00

Station data:
(V00) Kitt Peak-Bok  (N31.963125 W111.600190)  US/Arizona.  Observers T. A.
   Pruyne, B. M. Africano, E. J. Christensen, G. A. Farneth, D. C. Fuls, A.
   R. Gibbs, A. D. Grauer, H. Gröller, J. A. Johnson, R. A. Kowalski, S. M.
   Larson, G. J. Leonard, D. Rankin, R. L. Seaman, F. C. Shelly, K. W.
   Wierzchoś. 2.25-m reflector + 4x4K mosaic CCD.

Orbital elements:  C0UTWY5
   Perihelion 2025 Jan 5.93119 +/- 39.9 TT = 22:20:54 (JD 2460681.43119)
Epoch 2024 Oct 28.0 TT = JDT 2460611.5   Earth MOID: 0.0118   Ma: 0.0140
M 332.54210682 +/- 22               (J2000 ecliptic)             AutoNEOCP
n   0.39264160 +/- 0.315            Peri.  285.78615 +/- 90
a   1.84702103 +/- 0.989            Node   201.98472 +/- 60
e   0.5765229 +/- 0.247             Incl.    4.93161 +/- 4.7
P   2.510/916.849d         H 25.29  G  0.15   U 12.0  SR
q 0.78217108 +/- 0.355    Q 2.91187098 +/- 63.5
From 4 observations 2024 Oct. 28 (24.2 min); mean residual 0".31
Residuals in arcseconds: 
241028 V00  .42+  .20+    241028 V00  .28-  .06+    
241028 V00  .49-  .34-    241028 V00  .35+  .07+    

Ephemerides (geocentric):
Date (UTC) HH   RA             Dec           delta  r     elong  mag " sig PA
---- --------  ------------   ------------  ------ ------ -----  --- --------
2024 11 02 10  03 39 39.207   +08 38 01.62  .19260 1.1769 162.1 22.9  49d  85
2024 11 02 11  03 39 43.636   +08 36 10.79  .19222 1.1766 162.1 22.9  50d  85
2024 11 02 12  03 39 48.077   +08 34 19.54  .19184 1.1762 162.1 22.9  50d  85
2024 11 02 13  03 39 52.531   +08 32 27.89  .19147 1.1758 162.1 22.9  50d  85
2024 11 02 14  03 39 56.997   +08 30 35.81  .19109 1.1755 162.1 22.9  50d  85
2024 11 02 15  03 40 01.476   +08 28 43.32  .19071 1.1751 162.1 22.9  50d  85
2024 11 02 16  03 40 05.968   +08 26 50.41  .19034 1.1747 162.1 22.9  51d  85
2024 11 02 17  03 40 10.472   +08 24 57.07  .18996 1.1743 162.1 22.9  51d  85
2024 11 02 18  03 40 14.990   +08 23 03.31  .18958 1.1740 162.1 22.9  51d  85
2024 11 02 19  03 40 19.520   +08 21 09.12  .18921 1.1736 162.1 22.9  51d  85
2024 11 02 20  03 40 24.063   +08 19 14.50  .18883 1.1732 162.1 22.9  51d  85
2024 11 02 21  03 40 28.619   +08 17 19.45  .18846 1.1729 162.1 22.8  51d  85
2024 11 02 22  03 40 33.188   +08 15 23.97  .18808 1.1725 162.1 22.8  51d  85
2024 11 02 23  03 40 37.770   +08 13 28.05  .18771 1.1721 162.1 22.8  52d  85
2024 11 03 00  03 40 42.366   +08 11 31.69  .18733 1.1717 162.1 22.8  52d  85
2024 11 03 01  03 40 46.975   +08 09 34.90  .18696 1.1714 162.1 22.8  52d  85
2024 11 03 02  03 40 51.598   +08 07 37.66  .18658 1.1710 162.1 22.8  52d  85
2024 11 03 03  03 40 56.234   +08 05 39.97  .18621 1.1706 162.1 22.8  52d  85
2024 11 03 04  03 41 00.884   +08 03 41.84  .18584 1.1703 162.1 22.8  52d  85
2024 11 03 05  03 41 05.547   +08 01 43.26  .18546 1.1699 162.1 22.8  52d  85
2024 11 03 06  03 41 10.224   +07 59 44.22  .18509 1.1695 162.1 22.8  52d  85
2024 11 03 07  03 41 14.915   +07 57 44.74  .18472 1.1692 162.1 22.8  52d  85
2024 11 03 08  03 41 19.620   +07 55 44.79  .18434 1.1688 162.1 22.8  53d  85
2024 11 03 09  03 41 24.340   +07 53 44.39  .18397 1.1684 162.1 22.8  52d  83
2024 11 03 10  03 41 29.073   +07 51 43.53  .18360 1.1680 162.1 22.8  52d  83
2024 11 03 11  03 41 33.820   +07 49 42.20  .18323 1.1677 162.1 22.8  52d  83
2024 11 03 12  03 41 38.582   +07 47 40.41  .18285 1.1673 162.1 22.8  52d  83
2024 11 03 13  03 41 43.359   +07 45 38.15  .18248 1.1669 162.1 22.8  52d  83
2024 11 03 14  03 41 48.149   +07 43 35.42  .18211 1.1666 162.1 22.8  53d  83
2024 11 03 15  03 41 52.955   +07 41 32.21  .18174 1.1662 162.1 22.8  53d  83
2024 11 03 16  03 41 57.775   +07 39 28.53  .18137 1.1658 162.1 22.8  53d  83
2024 11 03 17  03 42 02.610   +07 37 24.37  .18100 1.1654 162.1 22.8  53d  82
2024 11 03 18  03 42 07.459   +07 35 19.73  .18063 1.1651 162.1 22.7  54d  82
2024 11 03 19  03 42 12.324   +07 33 14.61  .18026 1.1647 162.1 22.7  54d  82
2024 11 03 20  03 42 17.204   +07 31 09.00  .17989 1.1643 162.1 22.7  54d  82
2024 11 03 21  03 42 22.099   +07 29 02.91  .17952 1.1640 162.1 22.7  54d  82
2024 11 03 22  03 42 27.009   +07 26 56.32  .17915 1.1636 162.1 22.7  55d  82
2024 11 03 23  03 42 31.934   +07 24 49.24  .17878 1.1632 162.1 22.7  55d  82
2024 11 04 00  03 42 36.875   +07 22 41.67  .17841 1.1629 162.1 22.7  55d  82
2024 11 04 01  03 42 41.831   +07 20 33.59  .17804 1.1625 162.1 22.7  56d  81
2024 11 04 02  03 42 46.804   +07 18 25.02  .17767 1.1621 162.1 22.7  56d  81
2024 11 04 03  03 42 51.791   +07 16 15.94  .17730 1.1617 162.1 22.7  56d  81
2024 11 04 04  03 42 56.795   +07 14 06.35  .17693 1.1614 162.1 22.7  57d  81
2024 11 04 05  03 43 01.814   +07 11 56.26  .17656 1.1610 162.1 22.7  57d  81
2024 11 04 06  03 43 06.850   +07 09 45.65  .17620 1.1606 162.1 22.7  57d  81
2024 11 04 07  03 43 11.902   +07 07 34.53  .17583 1.1603 162.1 22.7  58d  81
2024 11 04 08  03 43 16.970   +07 05 22.89  .17546 1.1599 162.1 22.7  58d  81
2024 11 04 09  03 43 22.054   +07 03 10.73  .17509 1.1595 162.1 22.7  58d  81